Tiempo atmosférico en la estación meteorológica de Almazul, Soria (1000 m.)



Fecha
DESCASC
Temp. máxima en grados centígrados (hora)
DESCASC
Temp. mínima en grados centígrados (hora)
DESCASC
Temp. media en grados centígrados
DESCASC
Racha de viento máxima en m/sg (hora)
DESCASC
Velocidad máxima media en intervalos de 10 minutos(hora)
DESCASC
Precipitaciones diarias en mm
DESCASC
Precipitaciones de 00:00 a 06:00 en mm
DESCASC
Precipitaciones de 06:00 a 12:00 en mm
DESCASC
Precipitaciones de 12:00 a 18:00 en mm
DESCASC
Precipitaciones de 18:00 a 24:00 en mm
DESCASC
19-01-2020 -- (--) -- (--) -- -- (--) -- (--) -- 0 1.2 0 --
18-01-2020 7 (14:40) -1.9 (02:50) 2.6 17.78 (20:50) 11.11 (16:20) 3.8 0 0 0 3.8
17-01-2020 8.4 (14:30) -0.5 (23:40) 3.9 16.11 (14:40) 10.56 (14:00) 0.6 0.2 0.4 0 0
16-01-2020 11.2 (13:20) 3.7 (00:00) 7.4 13.61 (15:50) 9.72 (15:30) 0 0 0 0 0
15-01-2020 9.4 (14:40) 0 (00:00) 4.7 10.83 (14:50) 7.78 (14:50) 0 0 0 0 0
14-01-2020 5 (17:10) -2 (-00:0) 1.5 8.33 (21:50) 5.56 (22:00) 0 0 0 0 0
13-01-2020 9.3 (14:00) -4.9 (-00:0) 2.2 7.78 (14:30) 5 (14:10) 0 0 0 0 0
12-01-2020 11.1 (15:50) -6.9 (08:50) 2.1 6.39 (13:20) 4.72 (12:40) 0 0 0 0 0
11-01-2020 9.6 (16:10) -2.8 (-00:0) 3.4 12.22 (00:40) 9.72 (00:40) 0 0 0 0 0
10-01-2020 6.7 (00:00) 0.2 (00:00) 3.4 16.94 (20:50) 13.61 (20:50) 0.2 0.2 0 0 0
09-01-2020 11.8 (15:50) -0.2 (00:00) 5.8 10.28 (16:40) 6.94 (16:00) 0.2 0 0 0 0.2
08-01-2020 14.4 (15:40) -0.1 (00:00) 7.1 5.56 (05:10) 4.72 (05:10) 0 0 0 0 0
07-01-2020 12.8 (15:20) -3.4 (-00:0) 4.7 6.94 (04:40) 5.28 (04:40) 0 0 0 0 0
06-01-2020 13.4 (16:50) -3.4 (-00:0) 5 6.39 (14:50) 4.44 (23:20) 0 0 0 0 0
05-01-2020 13 (15:30) -3.8 (-00:0) 4.6 3.61 (08:50) 2.78 (08:50) 0 0 0 0 0
04-01-2020 8.5 (15:40) -1 (-00:0) 3.8 13.33 (12:10) 9.44 (12:20) 0 0 0 0 0
03-01-2020 4.9 (16:00) -0.2 (00:00) 2.4 7.5 (07:40) 4.72 (07:50) 0 0 0 0 0
02-01-2020 15.7 (15:00) -3.3 (-00:0) 6.2 4.44 (15:40) 3.33 (04:50) 0 0 0 0 0
01-01-2020 -- (--) -- (--) -- -- (--) -- (--) -- -- 0 0 0
31-12-2019 -- (--) -- (--) -- -- (--) -- (--) -- -- -- 0 0
30-12-2019 -- (--) -- (--) -- -- (--) -- (--) -- 0 0 0 --
29-12-2019 15.2 (15:10) -1.7 (-00:0) 6.7 5.28 (02:50) 3.89 (05:00) 0 0 0 0 0
28-12-2019 19 (16:20) -1.5 (-00:0) 8.8 4.72 (02:50) 3.89 (05:30) 0 0 0 0 0
27-12-2019 14.2 (16:30) -3.8 (-00:0) 5.2 -- (--) -- (--) -- 0 -- -- 0
26-12-2019 11.5 (14:50) 1.2 (00:00) 6.4 -- (--) -- (--) -- 0 0 0 --
25-12-2019 17.9 (16:10) -0.3 (00:00) 8.8 4.44 (03:20) 3.33 (03:20) 0 0 0 0 0
24-12-2019 13.9 (15:30) 3.8 (23:40) 8.8 7.78 (13:50) 5.28 (13:50) 0 0 0 0 0
23-12-2019 9.9 (16:20) 3.9 (00:00) 6.9 12.78 (01:40) 8.61 (03:50) 0 0 0 0 0

Gráficas

Temp. máximas Temp. mínimas Temp. medias Precipitaciones Rachas de viento máximas Velocidades máximas media en intervalos de 10 minutos

Datos horarios

Fecha y hora oficial Temperatura (ºC) Velocidad del viento (km/h) Dirección del viento Racha (km/h) Dirección de racha Precipitación (mm) Presión (hPa) Tendencia (hPa) Humedad (%)
2020-01-21 23:00:00 2.2 8 Este 20 Sudeste 1.4 -- -- 94
2020-01-21 22:00:00 2.6 6 Sudeste 36 Sudeste 0.6 -- -- 92
2020-01-21 21:00:00 3.4 26 Este 47 Nordeste 0.2 -- -- 89
2020-01-21 20:00:00 1.5 41 Nordeste 60 Nordeste 1 -- -- 91
2020-01-21 19:00:00 1.5 46 Nordeste 62 Nordeste 1.4 -- -- 91
2020-01-21 18:00:00 1.4 46 Nordeste 56 Nordeste 0.2 -- -- 90
2020-01-21 17:00:00 1.4 34 Nordeste 48 Este 2.6 -- -- 89
2020-01-21 16:00:00 2.2 37 Este 58 Este 0.8 -- -- 87
2020-01-21 15:00:00 1.5 24 Nordeste 44 Nordeste 0 -- -- 95
2020-01-21 14:00:00 1.3 26 Nordeste 42 Este 0.6 -- -- 91
2020-01-21 13:00:00 1.1 33 Este 44 Este 0.6 -- -- 92
2020-01-21 12:00:00 1.2 19 Nordeste 41 Este 0.2 -- -- 90
2020-01-21 11:00:00 0.5 17 Nordeste 41 Norte 0 -- -- 96
2020-01-21 10:00:00 -0.3 27 Nordeste 40 Nordeste 0 -- -- 97
2020-01-21 09:00:00 -0.5 32 Nordeste 45 Nordeste 0 -- -- 96
2020-01-21 08:00:00 -0.6 37 Nordeste 46 Nordeste 0 -- -- 96
2020-01-21 07:00:00 0.1 19 Nordeste 48 Nordeste 0 -- -- 89
2020-01-21 06:00:00 0.6 28 Nordeste 41 Nordeste 0 -- -- 87
2020-01-21 05:00:00 -0.2 11 Nordeste 38 Nordeste 0 -- -- 95
2020-01-21 04:00:00 -1.1 30 Nordeste 48 Nordeste 0 -- -- 87
2020-01-21 03:00:00 -1.5 34 Nordeste 58 Nordeste 0 -- -- 83
2020-01-21 02:00:00 -1.2 40 Nordeste 58 Nordeste 0 -- -- 78
2020-01-21 01:00:00 -0.8 45 Nordeste 52 Nordeste 0 -- -- 74
2020-01-21 00:00:00 -1.4 26 Nordeste 40 Este 0 -- -- 73
2020-01-20 23:00:00 -1.7 22 Nordeste 38 Nordeste 0 -- -- 74
2020-01-20 22:00:00 -1.4 26 Nordeste 46 Nordeste 0 -- -- 71
2020-01-20 21:00:00 -1.7 39 Nordeste 50 Nordeste 0 -- -- 77
2020-01-20 20:00:00 -1 33 Nordeste 51 Nordeste 0 -- -- 68
2020-01-20 19:00:00 -0.9 41 Nordeste 52 Nordeste 0 -- -- 64
2020-01-20 18:00:00 -0.6 28 Nordeste 49 Nordeste 0 -- -- 61
2020-01-20 17:00:00 -0.2 37 Nordeste 53 Nordeste 0 -- -- 59
2020-01-20 16:00:00 0.3 36 Nordeste 49 Nordeste 0 -- -- 57
2020-01-20 15:00:00 1.4 40 Nordeste 59 Nordeste 0 -- -- 55
2020-01-20 14:00:00 0.6 50 Nordeste 61 Nordeste 0 -- -- 57
2020-01-20 13:00:00 0.2 40 Nordeste 64 Nordeste 0 -- -- 57
2020-01-20 12:00:00 -0.8 49 Nordeste 62 Nordeste 0 -- -- 60
2020-01-20 11:00:00 -1.4 49 Nordeste 72 Nordeste 0 -- -- 60
2020-01-20 10:00:00 -2.5 44 Nordeste 60 Nordeste 0 -- -- 65
2020-01-20 09:00:00 -3 45 Nordeste 60 Nordeste 0 -- -- 66
2020-01-20 08:00:00 -3.5 43 Nordeste 66 Nordeste 0 -- -- 70
2020-01-20 07:00:00 -3 55 Nordeste -- -- -- -- -- 65
2020-01-20 06:00:00 -2.8 58 Nordeste -- -- -- -- -- 64
2020-01-20 05:00:00 -2.6 60 Nordeste -- -- -- -- -- 62
2020-01-20 04:00:00 -- -- -- -- -- -- -- -- --
2020-01-20 03:00:00 -- 69 Nordeste -- -- -- -- -- --
2020-01-20 02:00:00 -- 73 Nordeste -- -- -- -- -- --
2020-01-20 01:00:00 -2.3 69 Nordeste -- -- -- -- -- 70
2020-01-20 00:00:00 -2 59 Nordeste -- -- -- -- -- 67
2020-01-19 23:00:00 -1.8 60 Nordeste -- -- -- -- -- 67
2020-01-19 22:00:00 -1.4 64 Nordeste -- -- -- -- -- 68
2020-01-19 21:00:00 -0.9 63 Nordeste -- -- -- -- -- 65
2020-01-19 20:00:00 -0.7 60 Nordeste 79 Nordeste 0 -- -- 65
2020-01-19 19:00:00 -0.3 50 Nordeste 76 Nordeste 0 -- -- 63
2020-01-19 18:00:00 0.5 54 Nordeste 85 Nordeste 0 -- -- 60
2020-01-19 17:00:00 1.7 59 Nordeste 85 Nordeste 0 -- -- 57
2020-01-19 16:00:00 3 64 Nordeste 86 Nordeste 0 -- -- 53
2020-01-19 15:00:00 3.4 46 Nordeste 81 Nordeste 0 -- -- 57
2020-01-19 14:00:00 2.5 54 Nordeste 91 Nordeste 0 -- -- 55
2020-01-19 13:00:00 2.6 63 Nordeste 84 Nordeste 0 -- -- 56
2020-01-19 12:00:00 2.3 64 Nordeste 84 Nordeste 0 -- -- 66
2020-01-19 11:00:00 2.4 53 Nordeste 89 Nordeste 0 -- -- 74
2020-01-19 10:00:00 1.5 53 Nordeste 77 Nordeste 0 -- -- 88
2020-01-19 09:00:00 1.1 51 Nordeste 76 Nordeste 0.2 -- -- 92
2020-01-19 08:00:00 1.6 38 Nordeste 54 Nordeste 0.6 -- -- 93
2020-01-19 07:00:00 1.1 32 Norte 46 Norte 0.4 -- -- 94
2020-01-19 06:00:00 2.2 24 Norte 32 Norte 0 -- -- 90
2020-01-19 05:00:00 1.9 13 Norte 22 Norte 0 -- -- 92
2020-01-19 04:00:00 1.6 6 Norte 18 Norte 0 -- -- 90
2020-01-19 03:00:00 0.9 10 Nordeste 14 Nordeste 0 -- -- 92
2020-01-19 02:00:00 1.3 5 Norte 13 Nordeste 0 -- -- 93
2020-01-19 01:00:00 2 7 Norte 14 Norte 0 -- -- 92
2020-01-19 00:00:00 2 8 Norte 19 Norte 0 -- -- 94
2020-01-18 23:00:00 2.3 17 Noroeste 29 Norte 0 -- -- 95
2020-01-18 22:00:00 3 18 Noroeste 47 Noroeste 1.4 -- -- 91
2020-01-18 21:00:00 4.1 39 Noroeste 64 Noroeste 2.4 -- -- 89
2020-01-18 20:00:00 5.8 26 Sudoeste 40 Sudoeste 0 -- -- 89
2020-01-18 19:00:00 6.3 27 Sudoeste 46 Oeste 0 -- -- 86
2020-01-18 18:00:00 6.3 30 Sudoeste 51 Sudoeste 0 -- -- 86
2020-01-18 17:00:00 6 33 Sudoeste 54 Sudoeste 0 -- -- 87
2020-01-18 16:00:00 6.7 39 Oeste 55 Sudoeste 0 -- -- 80
2020-01-18 15:00:00 6.7 32 Sudoeste 49 Sudoeste 0 -- -- 81
2020-01-18 14:00:00 6.3 32 Sudoeste 47 Oeste 0 -- -- 82
2020-01-18 13:00:00 5.6 29 Sudoeste 44 Oeste 0 -- -- 83
2020-01-18 12:00:00 5.7 25 Oeste 38 Oeste 0 -- -- 83
2020-01-18 11:00:00 3.7 11 Sur 15 Sur 0 -- -- 91
2020-01-18 10:00:00 1.6 8 Sur 10 Sur 0 -- -- 91
2020-01-18 09:00:00 0.4 4 Sudoeste 6 Sudoeste 0 -- -- 91
2020-01-18 08:00:00 0.5 0 Calma 4 Este 0 -- -- 91
2020-01-18 07:00:00 -0.5 5 Norte 10 Este 0 -- -- 94
2020-01-18 06:00:00 -0.2 5 Este 7 Nordeste 0 -- -- 94
2020-01-18 05:00:00 -0.7 0 Calma 8 Sur 0 -- -- 94
2020-01-18 04:00:00 -0.5 0 Calma 7 Sudoeste 0 -- -- 96
2020-01-18 03:00:00 -1.9 3 Este 8 Sur 0 -- -- 95
2020-01-18 02:00:00 -1.5 5 Sudeste 8 Sudoeste 0 -- -- 94
2020-01-18 01:00:00 -1 2 Sudeste 6 Norte 0 -- -- 95
2020-01-18 00:00:00 0.4 3 Norte 10 Nordeste 0 -- -- 95
2020-01-17 23:00:00 0.6 9 Nordeste 18 Noroeste 0 -- -- 89
2020-01-17 22:00:00 2 9 Noroeste 17 Noroeste 0 -- -- 85
2020-01-17 21:00:00 2.2 4 Noroeste 13 Noroeste 0 -- -- 82
2020-01-17 20:00:00 3.2 5 Norte 21 Noroeste 0 -- -- 78
2020-01-17 19:00:00 4.3 2 Norte 28 Noroeste 0 -- -- 72
2020-01-17 18:00:00 5.8 17 Noroeste 32 Noroeste 0 -- -- 64
2020-01-17 17:00:00 6.9 21 Noroeste 35 Noroeste 0 -- -- 62
2020-01-17 16:00:00 7.4 23 Noroeste 48 Noroeste 0 -- -- 63
2020-01-17 15:00:00 7.7 32 Norte 58 Norte 0 -- -- 58
2020-01-17 14:00:00 7.5 38 Noroeste 49 Noroeste 0 -- -- 65
2020-01-17 13:00:00 7.4 28 Noroeste 53 Noroeste 0 -- -- 76
2020-01-17 12:00:00 6.4 29 Noroeste 44 Noroeste 0 -- -- 82
2020-01-17 11:00:00 5.2 24 Oeste 36 Oeste 0 -- -- 89
2020-01-17 10:00:00 4.2 16 Oeste 25 Oeste 0.4 -- -- 92
2020-01-17 09:00:00 3.2 6 Sudoeste 18 Oeste 0 -- -- 93
2020-01-17 08:00:00 3.5 12 Sudoeste 19 Sudoeste 0 -- -- 89
2020-01-17 07:00:00 3.8 10 Oeste 17 Sudoeste 0 -- -- 87
2020-01-17 06:00:00 4 9 Oeste 14 Oeste 0 -- -- 88
2020-01-17 05:00:00 4.9 9 Oeste 28 Sudoeste 0 -- -- 81
2020-01-17 04:00:00 5.3 21 Oeste 32 Sudoeste 0 -- -- 80
2020-01-17 03:00:00 5.3 18 Sudoeste 33 Oeste 0 -- -- 83
2020-01-17 02:00:00 5.8 26 Oeste 35 Oeste 0.2 -- -- 82
2020-01-17 01:00:00 6.6 18 Oeste 29 Oeste 0 -- -- 78
2020-01-17 00:00:00 5.2 11 Sur 24 Sur 0 -- -- 82
2020-01-16 23:00:00 5.4 14 Sur 18 Sur 0 -- -- 83
2020-01-16 22:00:00 4.5 10 Sur 17 Sur 0 -- -- 88
2020-01-16 21:00:00 5.8 10 Sur 19 Sur 0 -- -- 87
2020-01-16 20:00:00 5.3 9 Sur 25 Sur 0 -- -- 88
2020-01-16 19:00:00 6.5 17 Sur 25 Oeste 0 -- -- 83
2020-01-16 18:00:00 8.3 19 Oeste 47 Oeste 0 -- -- 76
2020-01-16 17:00:00 9.7 22 Oeste 43 Sudoeste 0 -- -- 72
2020-01-16 16:00:00 10.2 33 Sudoeste 49 Sudoeste 0 -- -- 74
2020-01-16 15:00:00 10.6 30 Oeste 44 Oeste 0 -- -- 72
2020-01-16 14:00:00 11 28 Oeste 42 Oeste 0 -- -- 73
2020-01-16 13:00:00 10.6 27 Sudoeste 40 Sudoeste 0 -- -- 74
2020-01-16 12:00:00 9.6 27 Sudoeste 40 Sudoeste 0 -- -- 80
2020-01-16 11:00:00 8.6 23 Sudoeste 29 Sudoeste 0 -- -- 83
2020-01-16 10:00:00 7.1 15 Sur 22 Sur 0 -- -- 89
2020-01-16 09:00:00 5.8 11 Sur 15 Sur 0 -- -- 94
2020-01-16 08:00:00 5.7 10 Sur 14 Sudeste 0 -- -- 93
2020-01-16 07:00:00 5.8 10 Sudeste 14 Sudeste 0 -- -- 93
2020-01-16 06:00:00 5.8 9 Sudoeste 18 Oeste 0 -- -- 94
2020-01-16 05:00:00 5.1 13 Sudoeste 19 Sudoeste 0 -- -- 96
2020-01-16 04:00:00 4.2 7 Sudoeste 17 Sudoeste 0 -- -- 96
2020-01-16 03:00:00 4 7 Sur 15 Sur 0 -- -- 95
2020-01-16 02:00:00 3.8 5 Sur 15 Sudoeste 0 -- -- 94
2020-01-16 01:00:00 3.9 8 Sur 17 Sudoeste 0 -- -- 94
2020-01-16 00:00:00 4.4 9 Sudoeste 14 Sudoeste 0 -- -- 93
2020-01-15 23:00:00 4.3 3 Sudoeste 14 Sudeste 0 -- -- 91
2020-01-15 22:00:00 4.4 6 Oeste 21 Oeste 0 -- -- 90
2020-01-15 21:00:00 4.2 6 Sudoeste 24 Sur 0 -- -- 89
2020-01-15 20:00:00 4.5 12 Sur 25 Sur 0 -- -- 87
2020-01-15 19:00:00 5.3 5 Sudoeste 18 Sudoeste 0 -- -- 83
2020-01-15 18:00:00 6.8 9 Sudoeste 25 Sudoeste 0 -- -- 77
2020-01-15 17:00:00 7.6 18 Oeste 37 Oeste 0 -- -- 73
2020-01-15 16:00:00 8.1 22 Oeste 36 Oeste 0 -- -- 71
2020-01-15 15:00:00 8.8 26 Oeste 39 Oeste 0 -- -- 69
2020-01-15 14:00:00 8.5 20 Oeste 37 Oeste 0 -- -- 70
2020-01-15 13:00:00 8.1 21 Sudoeste 33 Oeste 0 -- -- 73
2020-01-15 12:00:00 5.8 22 Sudoeste 33 Sudoeste 0 -- -- 81
2020-01-15 11:00:00 4.7 20 Sur 25 Sur 0 -- -- 85
2020-01-15 10:00:00 3.1 12 Sur 18 Sudoeste 0 -- -- 87
2020-01-15 09:00:00 2.6 8 Sudeste 16 Sudeste 0 -- -- 88
2020-01-15 08:00:00 2.7 9 Sudeste 16 Sudoeste 0 -- -- 89
2020-01-15 07:00:00 2.2 5 Sur 22 Sudoeste 0 -- -- 92
2020-01-15 06:00:00 2.5 13 Sudoeste 27 Sudoeste 0 -- -- 92
2020-01-15 05:00:00 2.4 8 Sudoeste 17 Sur 0 -- -- 91
2020-01-15 04:00:00 1.8 10 Sur 15 Sudeste 0 -- -- 91
2020-01-15 03:00:00 1.3 11 Sur 22 Sur 0 -- -- 91
2020-01-15 02:00:00 0.4 18 Sur 24 Sur 0 -- -- 90
2020-01-15 01:00:00 0.3 14 Sur 24 Sudoeste 0 -- -- 88
2020-01-15 00:00:00 0.5 6 Sudeste 12 Este 0 -- -- 87
2020-01-14 23:00:00 0.3 5 Sudoeste 27 Sudoeste 0 -- -- 88
2020-01-14 22:00:00 1.9 20 Oeste 30 Sudoeste 0 -- -- 82
2020-01-14 21:00:00 2.4 5 Oeste 18 Oeste 0 -- -- 74
2020-01-14 20:00:00 2.5 9 Sudoeste 25 Sudoeste 0 -- -- 73
2020-01-14 19:00:00 2 6 Sudoeste 10 Sudoeste 0 -- -- 77
2020-01-14 18:00:00 3.5 4 Oeste 15 Noroeste 0 -- -- 73
2020-01-14 17:00:00 4.9 9 Oeste 21 Oeste 0 -- -- 69
2020-01-14 16:00:00 4.5 15 Oeste 22 Oeste 0 -- -- 71
2020-01-14 15:00:00 4.2 13 Oeste 20 Oeste 0 -- -- 72
2020-01-14 14:00:00 1.1 13 Noroeste 21 Noroeste 0 -- -- 83
2020-01-14 13:00:00 0.3 14 Oeste 22 Noroeste 0 -- -- 86
2020-01-14 12:00:00 0.5 14 Oeste 21 Oeste 0 -- -- 86
2020-01-14 11:00:00 0.1 12 Oeste 22 Oeste 0 -- -- 88
2020-01-14 10:00:00 0.6 9 Oeste 19 Oeste 0 -- -- 86
2020-01-14 09:00:00 -1 10 Oeste 21 Oeste 0 -- -- 90
2020-01-14 08:00:00 -0.5 9 Oeste 28 Noroeste 0 -- -- 89
2020-01-14 07:00:00 0.2 17 Noroeste 25 Oeste 0 -- -- 87
2020-01-14 06:00:00 -0.7 2 Sur 8 Noroeste 0 -- -- 84
2020-01-14 05:00:00 -1.2 6 Noroeste 13 Noroeste 0 -- -- 83
2020-01-14 04:00:00 -1.3 3 Sur 10 Sur 0 -- -- 88
2020-01-14 03:00:00 -0.9 5 Sudeste 9 Sur 0 -- -- 85
2020-01-14 02:00:00 -0.5 2 Oeste 6 Oeste 0 -- -- 86
2020-01-14 01:00:00 -0.2 3 Oeste 9 Oeste 0 -- -- 86
2020-01-14 00:00:00 0.3 8 Oeste 12 Noroeste 0 -- -- 82
2020-01-13 23:00:00 0.2 0 Calma 16 Sudoeste 0 -- -- 79
2020-01-13 22:00:00 1.4 8 Oeste 15 Oeste 0 -- -- 75
2020-01-13 21:00:00 1.8 5 Oeste 19 Oeste 0 -- -- 70
2020-01-13 20:00:00 2.5 11 Oeste 19 Oeste 0 -- -- 66
2020-01-13 19:00:00 4.4 7 Sudoeste 15 Sur 0 -- -- 58
2020-01-13 18:00:00 5.3 9 Sudoeste 17 Noroeste 0 -- -- 53
2020-01-13 17:00:00 7.5 8 Norte 25 Oeste 0 -- -- 43
2020-01-13 16:00:00 8.5 17 Oeste 26 Oeste 0 -- -- 41
2020-01-13 15:00:00 8.5 16 Oeste 28 Oeste 0 -- -- 43
2020-01-13 14:00:00 9.3 16 Oeste 24 Oeste 0 -- -- 40
2020-01-13 13:00:00 6.7 4 Noroeste 8 Noroeste 0 -- -- 63
2020-01-13 12:00:00 3.2 4 Nordeste 8 Norte 0 -- -- 76
2020-01-13 11:00:00 1.5 0 Calma 11 Norte 0 -- -- 82
2020-01-13 10:00:00 -1.7 7 Nordeste 10 Nordeste 0 -- -- 87
2020-01-13 09:00:00 -3.5 5 Nordeste 11 Norte 0 -- -- 91
2020-01-13 08:00:00 -4.1 8 Norte 12 Norte 0 -- -- 92
2020-01-13 07:00:00 -4.2 6 Norte 8 Nordeste 0 -- -- 94
2020-01-13 06:00:00 -4 4 Norte 12 Norte 0 -- -- 94
2020-01-13 05:00:00 -4.9 4 Norte 8 Norte 0 -- -- 93
2020-01-13 04:00:00 -3.4 6 Norte 8 Norte 0 -- -- 94
2020-01-13 03:00:00 -3.2 4 Norte 9 Nordeste 0 -- -- 93
2020-01-13 02:00:00 -2.9 6 Nordeste 10 Nordeste 0 -- -- 93
2020-01-13 01:00:00 -1.4 7 Norte 14 Norte 0 -- -- 91
2020-01-13 00:00:00 -1.6 8 Nordeste 10 Nordeste 0 -- -- 87
2020-01-12 23:00:00 -1.9 2 Norte 7 Nordeste 0 -- -- 85
2020-01-12 22:00:00 0.2 2 Norte 6 Norte 0 -- -- 77
2020-01-12 21:00:00 0.8 0 Calma 6 Sudeste 0 -- -- 81
2020-01-12 20:00:00 2.7 0 Calma 9 Norte 0 -- -- 73
2020-01-12 19:00:00 3.7 4 Norte 13 Norte 0 -- -- 69
2020-01-12 18:00:00 6.9 4 Noroeste 10 Noroeste 0 -- -- 63
2020-01-12 17:00:00 10.8 3 Noroeste 9 Oeste 0 -- -- 54
2020-01-12 16:00:00 11 3 Noroeste 8 Noroeste 0 -- -- 52
2020-01-12 15:00:00 9.8 3 Oeste 21 Norte 0 -- -- 56
2020-01-12 14:00:00 4.9 10 Norte 23 Nordeste 0 -- -- 76
2020-01-12 13:00:00 1.6 16 Norte 22 Nordeste 0 -- -- 98
2020-01-12 12:00:00 -1.6 9 Norte 13 Norte 0 -- -- 96
2020-01-12 11:00:00 -3.8 6 Norte 12 Norte 0 -- -- 94
2020-01-12 10:00:00 -5.6 5 Nordeste 10 Nordeste 0 -- -- 94
2020-01-12 09:00:00 -6.9 6 Nordeste 11 Norte 0 -- -- 93
2020-01-12 08:00:00 -6.5 8 Nordeste 13 Norte 0 -- -- 94
2020-01-12 07:00:00 -6.6 9 Norte 16 Norte 0 -- -- 93
2020-01-12 06:00:00 -5.6 6 Norte 13 Norte 0 -- -- 94
2020-01-12 05:00:00 -5.6 6 Nordeste 13 Nordeste 0 -- -- 94
2020-01-12 04:00:00 -5.2 10 Nordeste 12 Norte 0 -- -- 93
2020-01-12 03:00:00 -4.7 5 Nordeste 14 Nordeste 0 -- -- 93
2020-01-12 02:00:00 -4.4 12 Nordeste 13 Nordeste 0 -- -- 91
2020-01-12 01:00:00 -3 7 Norte 15 Norte 0 -- -- 82
2020-01-12 00:00:00 -2 8 Norte 14 Norte 0 -- -- 80
2020-01-11 23:00:00 -0.8 6 Norte 13 Norte 0 -- -- 76
2020-01-11 22:00:00 0.5 6 Norte 12 Noroeste 0 -- -- 67
2020-01-11 21:00:00 1.6 2 Sudoeste 9 Este 0 -- -- 59
2020-01-11 20:00:00 3.2 5 Norte 19 Oeste 0 -- -- 54
2020-01-11 19:00:00 3.1 5 Nordeste 17 Norte 0 -- -- 57
2020-01-11 18:00:00 6.6 4 Noroeste 12 Noroeste 0 -- -- 44
2020-01-11 17:00:00 8.8 10 Noroeste 19 Oeste 0 -- -- 38
2020-01-11 16:00:00 9.5 10 Noroeste 18 Oeste 0 -- -- 41
2020-01-11 15:00:00 8.4 11 Noroeste 17 Noroeste 0 -- -- 39
2020-01-11 14:00:00 7.4 6 Oeste 12 Oeste 0 -- -- 42
2020-01-11 13:00:00 5.5 6 Noroeste 13 Noroeste 0 -- -- 54
2020-01-11 12:00:00 4 5 Noroeste 14 Norte 0 -- -- 59
2020-01-11 11:00:00 2.3 11 Norte 15 Norte 0 -- -- 65
2020-01-11 10:00:00 0.9 5 Norte 10 Norte 0 -- -- 72
2020-01-11 09:00:00 -2.3 9 Norte 11 Norte 0 -- -- 83
2020-01-11 08:00:00 -2.1 6 Norte 18 Norte 0 -- -- 85
2020-01-11 07:00:00 -1.7 7 Norte 23 Norte 0 -- -- 85
2020-01-11 06:00:00 -0.6 16 Norte 22 Norte 0 -- -- 83
2020-01-11 05:00:00 -0.6 14 Norte 23 Nordeste 0 -- -- 85
2020-01-11 04:00:00 1.4 15 Norte 34 Nordeste 0 -- -- 75
2020-01-11 03:00:00 0.8 15 Norte 30 Norte 0 -- -- 82
2020-01-11 02:00:00 1.1 19 Nordeste 41 Nordeste 0 -- -- 82
2020-01-11 01:00:00 1.6 33 Nordeste 44 Nordeste 0 -- -- 81
2020-01-11 00:00:00 2.3 25 Norte 31 Norte 0 -- -- 82
2020-01-10 23:00:00 3.2 14 Norte 28 Norte 0 -- -- 77
2020-01-10 22:00:00 3 20 Norte 54 Nordeste 0 -- -- 79
2020-01-10 21:00:00 3 42 Nordeste 61 Nordeste 0 -- -- 78
2020-01-10 20:00:00 3 35 Nordeste 55 Norte 0 -- -- 77
2020-01-10 19:00:00 3.6 22 Norte 41 Norte 0 -- -- 75
2020-01-10 18:00:00 4.2 29 Norte 42 Norte 0 -- -- 77
2020-01-10 17:00:00 5.2 29 Nordeste 46 Nordeste 0 -- -- 71
2020-01-10 16:00:00 5.5 24 Nordeste 48 Nordeste 0 -- -- 69
2020-01-10 15:00:00 6.1 33 Nordeste 46 Norte 0 -- -- 68
2020-01-10 14:00:00 5.7 32 Norte 49 Norte 0 -- -- 64
2020-01-10 13:00:00 4.9 25 Norte 41 Nordeste 0 -- -- 67
2020-01-10 12:00:00 4.6 26 Norte 49 Norte 0 -- -- 70
2020-01-10 11:00:00 4.4 30 Norte 39 Norte 0 -- -- 72
2020-01-10 10:00:00 1.9 30 Norte 37 Norte 0 -- -- 84
2020-01-10 09:00:00 1.4 8 Norte 31 Norte 0 -- -- 86
2020-01-10 08:00:00 1.4 13 Norte 21 Norte 0 -- -- 83
2020-01-10 07:00:00 0.4 5 Norte 9 Norte 0 -- -- 88
2020-01-10 06:00:00 1.8 10 Nordeste 23 Nordeste 0 -- -- 84
2020-01-10 05:00:00 2.9 6 Norte 37 Nordeste 0 -- -- 88
2020-01-10 04:00:00 3.3 29 Nordeste 41 Nordeste 0 -- -- 92
2020-01-10 03:00:00 3.7 8 Norte 15 Nordeste 0 -- -- 93
2020-01-10 02:00:00 4.2 12 Nordeste 30 Norte 0 -- -- 93
2020-01-10 01:00:00 5.8 13 Noroeste 39 Noroeste 0.2 -- -- 89
2020-01-10 00:00:00 6.7 14 Noroeste 26 Noroeste 0 -- -- 92
2020-01-09 23:00:00 6.8 8 Oeste 17 Noroeste 0 -- -- 92
2020-01-09 22:00:00 7 8 Oeste 15 Oeste 0 -- -- 93
2020-01-09 21:00:00 6.4 0 Calma 13 Oeste 0.2 -- -- 93
2020-01-09 20:00:00 6.9 2 Nordeste 17 Norte 0 -- -- 87
2020-01-09 19:00:00 6.9 11 Norte 15 Norte 0 -- -- 82
2020-01-09 18:00:00 8.3 3 Sudoeste 28 Noroeste 0 -- -- 78
2020-01-09 17:00:00 10.6 15 Noroeste 37 Noroeste 0 -- -- 70
2020-01-09 16:00:00 11.3 25 Oeste 36 Oeste 0 -- -- 65
2020-01-09 15:00:00 11 22 Oeste 32 Oeste 0 -- -- 64
2020-01-09 14:00:00 10.9 19 Oeste 27 Oeste 0 -- -- 59
2020-01-09 13:00:00 10.7 8 Oeste 18 Oeste 0 -- -- 59
2020-01-09 12:00:00 7.2 3 Norte 11 Noroeste 0 -- -- 70
2020-01-09 11:00:00 5.9 4 Norte 6 Norte 0 -- -- 76
2020-01-09 10:00:00 2.8 4 Norte 6 Norte 0 -- -- 84
2020-01-09 09:00:00 0.1 3 Sur 5 Sudeste 0 -- -- 96
2020-01-09 08:00:00 0.1 0 Calma 3 Norte 0 -- -- 94
2020-01-09 07:00:00 1 0 Calma 4 Norte 0 -- -- 95
2020-01-09 06:00:00 0.5 0 Calma 2 Sudeste 0 -- -- 96
2020-01-09 05:00:00 0.6 0 Calma 2 Este 0 -- -- 95
2020-01-09 04:00:00 1 0 Calma 6 Norte 0 -- -- 93
2020-01-09 03:00:00 0.7 0 Calma 4 Norte 0 -- -- 93
2020-01-09 02:00:00 1.7 3 Nordeste 9 Norte 0 -- -- 90
2020-01-09 01:00:00 2.1 5 Nordeste 10 Norte 0 -- -- 90
2020-01-09 00:00:00 2.1 2 Norte 5 Norte 0 -- -- 84
2020-01-08 23:00:00 2.6 0 Calma 7 Norte 0 -- -- 87
2020-01-08 22:00:00 2.5 2 Norte 4 Nordeste 0 -- -- 81
2020-01-08 21:00:00 4.3 0 Calma 13 Sudeste 0 -- -- 81
2020-01-08 20:00:00 5.2 5 Sudeste 9 Sudeste 0 -- -- 78
2020-01-08 19:00:00 6.8 5 Sudeste 10 Sur 0 -- -- 70
2020-01-08 18:00:00 8.3 9 Sur 14 Sudoeste 0 -- -- 67
2020-01-08 17:00:00 11.8 11 Sur 15 Sudoeste 0 -- -- 57
2020-01-08 16:00:00 13.6 11 Sur 15 Sur 0 -- -- 52
2020-01-08 15:00:00 13.6 8 Sur 13 Sur 0 -- -- 52
2020-01-08 14:00:00 12.4 4 Sudoeste 9 Sudoeste 0 -- -- 56
2020-01-08 13:00:00 10.3 5 Sudoeste 9 Sur 0 -- -- 57
2020-01-08 12:00:00 7.9 2 Norte 12 Norte 0 -- -- 60
2020-01-08 11:00:00 6.2 4 Nordeste 9 Nordeste 0 -- -- 61
2020-01-08 10:00:00 3.3 3 Nordeste 9 Norte 0 -- -- 70
2020-01-08 09:00:00 0.6 4 Nordeste 18 Nordeste 0 -- -- 77
2020-01-08 08:00:00 0.6 15 Nordeste 19 Norte 0 -- -- 78
2020-01-08 07:00:00 0.2 14 Nordeste 19 Nordeste 0 -- -- 80
2020-01-08 06:00:00 1.1 15 Norte 20 Norte 0 -- -- 75
2020-01-08 05:00:00 1.5 15 Norte 19 Norte 0 -- -- 75
2020-01-08 04:00:00 0.1 8 Norte 15 Norte 0 -- -- 83
2020-01-08 03:00:00 1.5 9 Norte 15 Norte 0 -- -- 77
2020-01-08 02:00:00 1.7 8 Norte 13 Norte 0 -- -- 77
2020-01-08 01:00:00 0.6 7 Nordeste 16 Nordeste 0 -- -- 82
2020-01-08 00:00:00 0.8 8 Nordeste 12 Norte 0 -- -- 79
2020-01-07 23:00:00 1.9 11 Norte 20 Norte 0 -- -- 73
2020-01-07 22:00:00 3.6 14 Norte 19 Norte 0 -- -- 63
2020-01-07 21:00:00 3.7 12 Norte 17 Norte 0 -- -- 62
2020-01-07 20:00:00 5.4 9 Norte 16 Norte 0 -- -- 54
2020-01-07 19:00:00 6.2 7 Norte 15 Norte 0 -- -- 53
2020-01-07 18:00:00 8 8 Norte 13 Norte 0 -- -- 51
2020-01-07 17:00:00 11.9 8 Norte 17 Norte 0 -- -- 44
2020-01-07 16:00:00 12 14 Norte 19 Norte 0 -- -- 44
2020-01-07 15:00:00 12.1 5 Norte 14 Norte 0 -- -- 45
2020-01-07 14:00:00 9.9 9 Norte 13 Noroeste 0 -- -- 49
2020-01-07 13:00:00 7.3 10 Nordeste 19 Norte 0 -- -- 58
2020-01-07 12:00:00 5.3 9 Nordeste 16 Norte 0 -- -- 64
2020-01-07 11:00:00 3.7 4 Norte 14 Nordeste 0 -- -- 64
2020-01-07 10:00:00 -0.2 13 Nordeste 17 Nordeste 0 -- -- 80
2020-01-07 09:00:00 -2.9 8 Norte 12 Nordeste 0 -- -- 87
2020-01-07 08:00:00 -2.4 9 Nordeste 15 Norte 0 -- -- 87
2020-01-07 07:00:00 -1.7 13 Nordeste 20 Nordeste 0 -- -- 84
2020-01-07 06:00:00 -1.8 12 Nordeste 15 Nordeste 0 -- -- 82
2020-01-07 05:00:00 -0.8 11 Norte 25 Norte 0 -- -- 77
2020-01-07 04:00:00 -0.3 9 Nordeste 14 Nordeste 0 -- -- 74
2020-01-07 03:00:00 0 8 Nordeste 14 Nordeste 0 -- -- 75
2020-01-07 02:00:00 -0.1 14 Nordeste 16 Nordeste 0 -- -- 77
2020-01-07 01:00:00 0.8 4 Norte 13 Nordeste 0 -- -- 70
2020-01-07 00:00:00 1.7 9 Norte 18 Norte 0 -- -- 67
2020-01-06 23:00:00 2.7 13 Norte 16 Norte 0 -- -- 63
2020-01-06 22:00:00 3.1 5 Norte 14 Nordeste 0 -- -- 59
2020-01-06 21:00:00 3.5 11 Nordeste 13 Norte 0 -- -- 60
2020-01-06 20:00:00 5.6 4 Nordeste 15 Norte 0 -- -- 51
2020-01-06 19:00:00 6.6 8 Norte 14 Noroeste 0 -- -- 50
2020-01-06 18:00:00 9.9 5 Oeste 10 Noroeste 0 -- -- 40
2020-01-06 17:00:00 13.2 5 Noroeste 15 Noroeste 0 -- -- 38
2020-01-06 16:00:00 13.3 9 Noroeste 18 Oeste 0 -- -- 35
2020-01-06 15:00:00 12.2 12 Noroeste 23 Noroeste 0 -- -- 38
2020-01-06 14:00:00 10.3 7 Norte 17 Noroeste 0 -- -- 50
2020-01-06 13:00:00 8.4 10 Norte 15 Norte 0 -- -- 54
2020-01-06 12:00:00 6.1 6 Norte 8 Norte 0 -- -- 67
2020-01-06 11:00:00 4.1 3 Nordeste 12 Nordeste 0 -- -- 74
2020-01-06 10:00:00 0 6 Norte 12 Nordeste 0 -- -- 83